DIMMC EDDH-EDDV

Flight info

Callsign DIMMC
Flight time 0h 36m
Altitude
Route VFR
Aircraft DA62

Departure

Time 2026-04-24 12:26
Airport Hamburg Helmut Schmidt Airport (EDDH)

Arrival

Time 2026-04-24 13:02
Airport Hannover Airport (EDDV)
Time Latitude Longitude Altitude Speed Heading
2026-04-24 12:16 53.62627 9.98624 37 ft 0 kts 240°
2026-04-24 12:21 53.62626 9.98617 37 ft 4 kts 262°
2026-04-24 12:21 53.62654 9.98603 37 ft 7 kts 22°
2026-04-24 12:22 53.62693 9.98671 37 ft 3 kts 323°
2026-04-24 12:22 53.62737 9.98649 37 ft 8 kts 41°
2026-04-24 12:22 53.62776 9.98727 37 ft 9 kts 48°
2026-04-24 12:22 53.62822 9.98818 38 ft 11 kts 50°
2026-04-24 12:23 53.62874 9.98924 38 ft 13 kts 50°
2026-04-24 12:23 53.62937 9.99053 38 ft 16 kts 51°
2026-04-24 12:23 53.63009 9.99203 39 ft 17 kts 51°
2026-04-24 12:23 53.63094 9.99299 39 ft 3 kts 15°
2026-04-24 12:24 53.63128 9.99312 39 ft 9 kts 14°
2026-04-24 12:24 53.63153 9.99322 40 ft 0 kts 13°
2026-04-24 12:25 53.63161 9.99325 40 ft 3 kts 10°
2026-04-24 12:25 53.63227 9.99349 41 ft 14 kts 13°
2026-04-24 12:25 53.63309 9.99366 41 ft 10 kts 329°
2026-04-24 12:25 53.63511 9.99187 40 ft 63 kts 332°
2026-04-24 12:26 53.63985 9.98778 277 ft 77 kts 331°
2026-04-24 12:26 53.64485 9.98423 655 ft 84 kts 331°
2026-04-24 12:26 53.65065 9.97988 915 ft 99 kts 327°
2026-04-24 12:26 53.65733 9.97442 1170 ft 112 kts 326°
2026-04-24 12:27 53.66442 9.96823 1469 ft 117 kts 327°
2026-04-24 12:27 53.67195 9.96239 1841 ft 118 kts 330°
2026-04-24 12:27 53.67935 9.95723 2316 ft 114 kts 332°
2026-04-24 12:27 53.68722 9.95062 2283 ft 143 kts 330°
2026-04-24 12:28 53.69773 9.94800 2180 ft 165 kts 352°
2026-04-24 12:28 53.70954 9.94713 2082 ft 174 kts 352°
2026-04-24 12:28 53.72174 9.94939 1967 ft 179 kts 15°
2026-04-24 12:28 53.73130 9.96221 1851 ft 177 kts 50°
2026-04-24 12:29 53.73539 9.98068 2034 ft 162 kts 74°
2026-04-24 12:29 53.73660 9.99850 2476 ft 140 kts 87°
2026-04-24 12:29 53.73591 10.01468 2893 ft 140 kts 90°
2026-04-24 12:29 53.73454 10.03091 3319 ft 138 kts 94°
2026-04-24 12:30 53.73253 10.04632 3784 ft 133 kts 98°
2026-04-24 12:30 53.72997 10.06107 4168 ft 135 kts 102°
2026-04-24 12:30 53.72659 10.07616 4499 ft 137 kts 105°
2026-04-24 12:30 53.72259 10.09107 4806 ft 143 kts 110°
2026-04-24 12:31 53.71783 10.10658 4943 ft 160 kts 114°
2026-04-24 12:31 53.71207 10.12334 5093 ft 169 kts 115°
2026-04-24 12:31 53.70592 10.14106 5123 ft 181 kts 112°
2026-04-24 12:31 53.70021 10.16032 5176 ft 187 kts 112°
2026-04-24 12:32 53.69395 10.18015 5177 ft 195 kts 114°
2026-04-24 12:32 53.68566 10.19839 5174 ft 203 kts 136°
2026-04-24 12:32 53.67343 10.21060 5169 ft 207 kts 159°
2026-04-24 12:32 53.65951 10.21710 5174 ft 208 kts 165°
2026-04-24 12:33 53.64553 10.22336 5174 ft 208 kts 165°
2026-04-24 12:33 53.63153 10.22980 5173 ft 208 kts 164°
2026-04-24 12:33 53.61756 10.23625 5174 ft 209 kts 164°
2026-04-24 12:33 53.60349 10.24272 5173 ft 209 kts 164°
2026-04-24 12:34 53.58946 10.24916 5174 ft 209 kts 164°
2026-04-24 12:34 53.57540 10.25561 5173 ft 209 kts 164°
2026-04-24 12:34 53.56152 10.26197 5173 ft 209 kts 165°
2026-04-24 12:34 53.54750 10.26839 5169 ft 208 kts 165°
2026-04-24 12:35 53.53348 10.27480 5170 ft 208 kts 164°
2026-04-24 12:35 53.51949 10.28121 5165 ft 208 kts 165°
2026-04-24 12:35 53.50551 10.28760 5169 ft 208 kts 164°
2026-04-24 12:35 53.49156 10.29397 5166 ft 208 kts 164°
2026-04-24 12:36 53.47761 10.30034 5169 ft 207 kts 165°
2026-04-24 12:36 53.46364 10.30671 5170 ft 208 kts 165°
2026-04-24 12:36 53.44968 10.31307 5160 ft 208 kts 165°
2026-04-24 12:36 53.43570 10.31932 5159 ft 208 kts 167°
2026-04-24 12:37 53.42156 10.31990 5163 ft 207 kts 191°
2026-04-24 12:37 53.40751 10.31490 5167 ft 206 kts 194°
2026-04-24 12:37 53.39348 10.30984 5166 ft 206 kts 194°
2026-04-24 12:37 53.37942 10.30486 5161 ft 206 kts 194°
2026-04-24 12:38 53.36534 10.29987 5166 ft 207 kts 194°
2026-04-24 12:38 53.35126 10.29488 5167 ft 206 kts 194°
2026-04-24 12:38 53.33719 10.28989 5166 ft 207 kts 195°
2026-04-24 12:39 53.29493 10.27492 5168 ft 208 kts 194°
2026-04-24 12:39 53.28083 10.26994 5173 ft 207 kts 195°
2026-04-24 12:39 53.26676 10.26496 5169 ft 207 kts 195°
2026-04-24 12:40 53.25265 10.25997 5176 ft 207 kts 194°
2026-04-24 12:40 53.23869 10.25504 5176 ft 207 kts 195°
2026-04-24 12:40 53.22461 10.25008 5176 ft 207 kts 195°
2026-04-24 12:40 53.21049 10.24509 5176 ft 207 kts 194°
2026-04-24 12:41 53.19642 10.24014 5174 ft 207 kts 194°
2026-04-24 12:41 53.18233 10.23519 5175 ft 207 kts 195°
2026-04-24 12:41 53.16826 10.23024 5174 ft 206 kts 195°
2026-04-24 12:41 53.15422 10.22530 5175 ft 206 kts 194°
2026-04-24 12:42 53.14017 10.22036 5177 ft 206 kts 195°
2026-04-24 12:42 53.12611 10.21543 5178 ft 207 kts 195°
2026-04-24 12:42 53.11219 10.21054 5233 ft 204 kts 195°
2026-04-24 12:42 53.09855 10.20578 5431 ft 197 kts 195°
2026-04-24 12:43 53.08532 10.20114 5627 ft 192 kts 195°
2026-04-24 12:43 53.07234 10.19659 5825 ft 189 kts 195°
2026-04-24 12:43 53.05953 10.19211 6028 ft 187 kts 195°
2026-04-24 12:43 53.04675 10.18762 6177 ft 190 kts 195°
2026-04-24 12:44 53.03349 10.18296 6182 ft 199 kts 195°
2026-04-24 12:44 53.01976 10.17816 6183 ft 204 kts 194°
2026-04-24 12:44 53.00577 10.17329 6184 ft 206 kts 195°
2026-04-24 12:44 52.99182 10.16844 6186 ft 208 kts 195°
2026-04-24 12:45 52.97757 10.16346 6184 ft 210 kts 195°
2026-04-24 12:45 52.96324 10.15847 6184 ft 210 kts 195°
2026-04-24 12:45 52.94894 10.15350 6187 ft 210 kts 195°
2026-04-24 12:45 52.93459 10.14851 6188 ft 210 kts 194°
2026-04-24 12:46 52.92027 10.14353 6189 ft 211 kts 195°
2026-04-24 12:46 52.90590 10.13853 6189 ft 211 kts 195°
2026-04-24 12:46 52.89154 10.13354 6190 ft 211 kts 194°
2026-04-24 12:46 52.87735 10.12862 6192 ft 211 kts 194°
2026-04-24 12:47 52.86294 10.12362 6189 ft 211 kts 195°
2026-04-24 12:47 52.84853 10.11864 6190 ft 211 kts 194°
2026-04-24 12:47 52.83418 10.11366 6189 ft 210 kts 194°
2026-04-24 12:47 52.82006 10.10877 6182 ft 210 kts 194°
2026-04-24 12:48 52.80573 10.10382 6178 ft 210 kts 194°
2026-04-24 12:48 52.79139 10.09886 6181 ft 210 kts 194°
2026-04-24 12:48 52.77704 10.09390 6182 ft 211 kts 194°
2026-04-24 12:48 52.76274 10.08897 6180 ft 204 kts 194°
2026-04-24 12:49 52.74993 10.08462 6172 ft 173 kts 195°
2026-04-24 12:49 52.73894 10.08087 6175 ft 152 kts 196°
2026-04-24 12:49 52.72875 10.07730 6176 ft 147 kts 197°
2026-04-24 12:49 52.71886 10.07387 6174 ft 144 kts 197°
2026-04-24 12:50 52.70927 10.07056 6178 ft 141 kts 197°
2026-04-24 12:50 52.69973 10.06728 6175 ft 138 kts 196°
2026-04-24 12:50 52.69038 10.06405 6174 ft 137 kts 196°
2026-04-24 12:50 52.68116 10.06088 6176 ft 134 kts 197°
2026-04-24 12:51 52.67203 10.05774 6174 ft 133 kts 197°
2026-04-24 12:51 52.66299 10.05463 6175 ft 132 kts 197°
2026-04-24 12:51 52.65399 10.05154 6176 ft 131 kts 197°
2026-04-24 12:51 52.64502 10.04847 6176 ft 131 kts 197°
2026-04-24 12:52 52.63620 10.04544 6174 ft 131 kts 197°
2026-04-24 12:52 52.62723 10.04236 6175 ft 131 kts 197°
2026-04-24 12:52 52.61831 10.03931 6175 ft 130 kts 196°
2026-04-24 12:52 52.60943 10.03626 6175 ft 130 kts 197°
2026-04-24 12:53 52.60054 10.03322 6170 ft 131 kts 197°
2026-04-24 12:53 52.59164 10.03017 6178 ft 130 kts 197°
2026-04-24 12:53 52.58283 10.02711 6170 ft 131 kts 197°
2026-04-24 12:53 52.57353 10.02374 5993 ft 145 kts 197°
2026-04-24 12:54 52.56316 10.02003 5749 ft 159 kts 196°
2026-04-24 12:54 52.55202 10.01608 5504 ft 168 kts 195°
2026-04-24 12:54 52.54040 10.01197 5258 ft 173 kts 195°
2026-04-24 12:54 52.52861 10.00781 5014 ft 177 kts 195°
2026-04-24 12:55 52.51656 10.00336 4758 ft 178 kts 200°
2026-04-24 12:55 52.50606 9.99364 4492 ft 171 kts 227°
2026-04-24 12:55 52.49854 9.97908 4231 ft 165 kts 241°
2026-04-24 12:55 52.49161 9.96413 3975 ft 164 kts 240°
2026-04-24 12:56 52.48468 9.94936 3723 ft 162 kts 240°
2026-04-24 12:56 52.47786 9.93484 3478 ft 160 kts 240°
2026-04-24 12:56 52.47113 9.92048 3223 ft 160 kts 239°
2026-04-24 12:56 52.46439 9.90585 2960 ft 159 kts 239°
2026-04-24 12:57 52.45810 9.89207 2666 ft 143 kts 239°
2026-04-24 12:57 52.45277 9.87940 2359 ft 128 kts 246°
2026-04-24 12:57 52.44972 9.86753 2078 ft 103 kts 259°
2026-04-24 12:57 52.44833 9.85657 1738 ft 94 kts 267°
2026-04-24 12:58 52.44815 9.84623 1404 ft 87 kts 275°
2026-04-24 12:58 52.44860 9.83673 1144 ft 81 kts 277°
2026-04-24 12:58 52.44910 9.82754 951 ft 81 kts 279°
2026-04-24 12:58 52.44984 9.81855 850 ft 78 kts 283°
2026-04-24 12:59 52.45073 9.80971 775 ft 82 kts 282°
2026-04-24 12:59 52.45142 9.80081 729 ft 76 kts 278°
2026-04-24 12:59 52.45173 9.79210 646 ft 78 kts 276°
2026-04-24 12:59 52.45182 9.78328 626 ft 80 kts 276°
2026-04-24 13:00 52.45207 9.77357 649 ft 91 kts 277°
2026-04-24 13:00 52.45238 9.76296 665 ft 95 kts 275°
2026-04-24 13:00 52.45292 9.75224 602 ft 93 kts 274°
2026-04-24 13:00 52.45318 9.74262 531 ft 82 kts 272°
2026-04-24 13:01 52.45344 9.73321 488 ft 83 kts 274°
2026-04-24 13:01 52.45373 9.72409 414 ft 76 kts 274°
2026-04-24 13:01 52.45395 9.71547 273 ft 75 kts 273°
2026-04-24 13:01 52.45419 9.70707 189 ft 70 kts 272°
2026-04-24 13:02 52.45442 9.69992 172 ft 51 kts 272°
2026-04-24 13:02 52.45454 9.69535 178 ft 29 kts 272°
2026-04-24 13:02 52.45463 9.69227 177 ft 26 kts 273°
2026-04-24 13:02 52.45529 9.69135 177 ft 8 kts
2026-04-24 13:03 52.45555 9.69138 176 ft 0 kts
2026-04-24 13:03 52.45556 9.69138 176 ft 3 kts
2026-04-24 13:03 52.45641 9.69147 174 ft 18 kts
2026-04-24 13:04 52.45755 9.69177 173 ft 14 kts 44°
2026-04-24 13:04 52.45831 9.69180 172 ft 10 kts 320°
2026-04-24 13:04 52.45880 9.69117 171 ft 9 kts 326°
2026-04-24 13:04 52.45933 9.69053 172 ft 10 kts 322°
2026-04-24 13:05 52.45991 9.68980 172 ft 12 kts 322°
2026-04-24 13:05 52.46056 9.68901 172 ft 10 kts 323°
2026-04-24 13:05 52.46108 9.68834 173 ft 9 kts 321°
2026-04-24 13:05 52.46158 9.68769 174 ft 9 kts 322°
2026-04-24 13:06 52.46219 9.68738 175 ft 10 kts 13°
2026-04-24 13:06 52.46268 9.68845 175 ft 16 kts 68°
2026-04-24 13:06 52.46316 9.69030 177 ft 18 kts 69°
2026-04-24 13:06 52.46355 9.69205 176 ft 11 kts 69°
2026-04-24 13:07 52.46340 9.69280 176 ft 8 kts 165°
2026-04-24 13:07 52.46292 9.69325 176 ft 8 kts 79°
2026-04-24 13:07 52.46330 9.69338 176 ft 0 kts 333°